Flag for Oman Weather past 2 weeks in Salalah, Oman

Now
82 °F

Passing clouds.


Feels Like: 92 °F
Forecast: 80 / 86 °F
Wind: 7 mph from South

Location: Salalah Airport

Current Time: Jul 2, 2015 at 10:45:04 PM

Latest Report: Jul 2, 2015 at 9:50 PM


Visibility: 6 mi

Pressure: 29.77 "Hg

Humidity: 89%

Dew point: 79 °F

Location of SalalahLocation

Historic Weather in Salalah — Graph

°F

Salalah temperature yesterday

Maximum temperature yesterday: 88 °F (at 12:50 PM)
Minimum temperature yesterday: 81 °F (at 2:50 AM)
Average temperature yesterday: 84 °F

Past Weeks' High & Low Weather Summary

 TemperatureHumidityPressure
High91 °F (Jun 23, 11:50 AM)100% (Jun 24, 2:50 AM)29.80 "Hg (Jun 24, 2:50 AM)
Low79 °F (Jun 24, 2:50 AM)63% (Jun 23, 1:50 PM)29.47 "Hg (Jun 22, 1:50 PM)
Average85 °F84%29.64 "Hg
* Reported Jun 17 9:50 PM — Jul 2 9:50 PM, Salalah, Weather by CustomWeather, © 2015

Note: Actual official high and low records may vary slightly from our data, if they occured in-between our weather recording intervals... More about our weather records

Advertising

Salalah weather history for previous 24 hours

 ConditionsComfort  
Time TempWeatherWind HumidityBarometerVisibility
9:50 PM
Thu, Jul 2
82 °FPassing clouds.7 mph89%29.77 "Hg6 mi
8:50 PM82 °FPassing clouds.8 mph89%29.77 "Hg6 mi
7:50 PM82 °FPassing clouds.8 mph89%29.74 "HgN/A
6:50 PM82 °FPartly sunny.7 mph89%29.71 "Hg6 mi
5:50 PM84 °FPartly sunny.9 mph84%29.71 "Hg6 mi
4:50 PM86 °FPartly sunny.12 mph79%29.71 "Hg6 mi
3:50 PM84 °FBroken clouds.15 mph84%29.71 "Hg5 mi
2:50 PM86 °FBroken clouds.14 mph79%29.74 "Hg5 mi
1:50 PM86 °FBroken clouds.14 mph79%29.74 "Hg5 mi
12:50 PM86 °FBroken clouds.15 mph79%29.77 "Hg5 mi
11:50 AM86 °FBroken clouds.15 mph79%29.77 "Hg5 mi
10:50 AM84 °FBroken clouds.13 mph84%29.80 "Hg5 mi
9:50 AM84 °FBroken clouds.13 mph89%29.80 "Hg4 mi
8:50 AM84 °FBroken clouds.8 mph89%29.77 "Hg4 mi
7:50 AM82 °FPartly sunny.7 mph94%29.77 "Hg5 mi
6:50 AM82 °FPartly sunny.3 mph94%29.77 "Hg5 mi
5:50 AM82 °FMostly cloudy.5 mph94%29.74 "Hg5 mi
4:50 AM82 °FPassing clouds.5 mph94%29.74 "Hg5 mi
3:50 AM82 °FPassing clouds.5 mph94%29.74 "Hg5 mi
2:50 AM82 °FPassing clouds.6 mph89%29.71 "Hg5 mi
1:50 AM82 °FPassing clouds.5 mph89%29.74 "Hg5 mi
12:50 AM82 °FPassing clouds.6 mph94%29.74 "Hg5 mi
11:50 PM
Wed, Jul 1
82 °FPassing clouds.6 mph89%29.74 "Hg6 mi
10:50 PM82 °FPassing clouds.7 mph94%29.74 "Hg6 mi
Weather by CustomWeather, © 2015

See weather overviewHow to use our weather pages